Theta_e
313 314 314 316 318 318 318 318 319 321 320 320 320 320 319 319 320 319 319 317 317 317 316 317 314 314 305 297 297 303 313 309 303 301 297 296 293 291 288 290 290 286 288 291 291 291 289
310 311 311 312 314 314 317 317 317 319 321 320 320 319 319 320 320 320 319 317 317 316 316 316 314 313 298 292 301 303 302 301 301 298 296 295 293 293 290 289 288 289 289 289 290 289 289
309 309 309 309 310 312 315 315 317 318 320 320 320 319 319 319 320 319 317 316 316 316 316 313 314 307 299 296 300 301 300 299 300 299 295 296 295 291 291 287 291 289 285 287 289 289 287
309 308 308 308 308 310 312 314 315 317 320 320 319 319 319 319 319 316 315 315 315 315 316 312 312 302 293 299 298 299 300 298 299 299 298 297 296 293 290 291 289 285 283 281 288 288 287
309 308 307 307 307 308 311 313 314 314 318 320 319 319 319 319 317 314 314 314 315 314 313 311 302 297 292 302 296 299 299 297 298 298 297 298 295 290 290 285 282 283 279 280 285 288 286
309 308 308 307 307 307 310 312 312 312 312 313 315 314 314 316 313 312 311 312 310 308 308 308 304 294 293 291 296 298 298 299 296 295 294 292 289 285 283 282 277 280 279 282 282 284 284
309 309 308 307 306 306 308 310 311 310 310 310 309 310 311 309 310 310 309 305 301 299 299 294 294 293 293 296 298 296 298 296 295 292 286 289 283 281 284 286 285 283 281 280 281 285 282
308 308 309 307 307 306 307 310 310 309 309 308 308 308 308 309 310 310 308 301 302 302 295 299 299 296 295 296 291 294 298 291 290 286 287 284 281 287 288 288 285 282 279 279 282 285 282
306 307 308 308 306 306 307 310 308 308 308 307 306 306 306 307 308 307 303 302 305 304 295 298 298 296 293 295 291 290 294 291 287 286 285 283 285 288 287 284 283 281 279 279 279 281 281
304 305 306 307 307 305 307 305 305 304 304 304 304 304 305 306 302 303 299 305 305 305 287 290 291 294 292 293 288 293 294 290 287 285 285 284 287 286 284 283 283 280 282 281 280 275 274
303 303 304 306 306 306 305 304 303 302 303 303 303 303 303 305 299 299 301 304 305 302 276 289 288 292 291 292 288 287 293 290 284 285 285 282 283 283 282 283 285 280 283 281 279 275 272
304 303 302 303 305 305 306 305 304 303 303 303 302 302 302 301 300 301 304 304 302 283 275 282 284 283 284 286 286 287 288 291 291 286 285 283 287 286 284 285 285 285 282 281 279 276 269
303 304 303 302 303 304 305 305 305 304 303 301 300 300 299 302 296 303 302 298 282 277 286 280 279 282 282 281 283 284 282 282 281 278 278 282 283 285 286 282 284 281 278 266 267 267 266
302 302 303 303 303 304 304 305 304 304 303 302 300 299 298 298 303 302 299 287 276 282 280 283 282 281 280 283 282 282 280 279 283 282 277 276 274 281 285 281 279 280 277 271 263 265 267
301 301 301 302 302 302 303 304 304 303 303 300 299 292 296 296 301 301 290 278 278 281 285 281 283 278 280 282 282 282 280 279 283 285 277 275 276 283 283 284 282 279 275 278 270 265 267
300 300 301 301 302 302 302 303 302 303 301 299 289 289 291 299 301 296 284 281 284 286 288 285 280 281 277 279 280 281 280 283 284 287 287 280 275 282 282 283 283 281 281 273 268 261 262
300 300 300 300 301 301 301 301 299 302 300 298 288 285 292 299 299 290 280 282 284 289 289 284 283 282 281 279 282 280 281 282 285 285 287 282 277 277 280 274 276 279 275 276 274 269 264
300 300 300 300 300 301 301 301 301 302 299 295 288 279 295 300 285 285 283 282 288 286 289 287 287 284 283 283 281 281 281 282 287 287 282 284 278 274 274 278 280 277 273 274 268 265 265
300 299 299 299 299 300 301 301 301 301 300 290 284 284 297 296 278 280 285 284 286 285 286 286 285 285 282 280 279 282 281 286 287 285 282 282 276 272 274 277 279 278 278 273 269 269 267
299 299 299 299 299 299 300 300 301 299 301 290 286 280 287 289 288 279 280 281 282 286 286 287 286 285 281 276 282 279 281 285 286 286 288 285 276 271 271 270 270 272 274 276 272 267 262
299 299 299 299 298 299 299 300 300 300 301 291 286 282 283 279 280 283 283 281 282 281 286 286 283 281 280 276 278 276 281 282 285 287 284 280 273 272 270 277 275 266 271 274 276 269 269
298 298 298 299 298 299 299 299 299 300 301 289 284 283 282 282 280 281 282 279 281 282 283 282 278 281 279 277 279 276 281 281 280 284 281 280 273 269 269 265 262 272 270 269 275 276 269
298 297 298 298 297 298 299 299 298 298 298 288 286 291 285 279 278 280 278 281 282 284 285 286 284 281 278 279 282 283 284 284 283 279 277 277 271 268 265 265 267 265 269 269 268 264 276
298 297 298 297 297 298 298 298 299 299 299 291 287 284 283 272 276 279 281 282 281 282 281 285 285 282 283 287 286 284 283 283 281 280 279 273 271 269 263 265 261 268 258 263 268 264 267
298 297 297 297 297 297 298 298 298 298 298 293 292 285 279 276 278 280 280 281 282 283 283 283 284 286 288 285 278 274 272 276 275 279 278 275 272 267 262 262 266 271 264 266 268 269 268
297 297 297 297 297 297 297 298 298 298 299 294 291 292 288 280 275 283 279 280 277 279 280 281 285 287 286 282 272 264 266 266 268 271 278 279 276 269 260 258 258 267 268 269 266 267 262
297 296 296 296 296 296 297 297 298 298 298 293 291 293 288 281 280 283 282 278 282 280 278 281 282 283 284 274 267 264 264 266 266 265 268 273 272 267 262 257 264 269 274 276 267 269 262
297 296 296 296 296 296 297 297 297 298 298 296 292 294 287 278 283 285 286 284 282 280 276 280 279 280 279 272 270 268 266 268 265 266 267 268 267 264 265 263 263 273 275 271 270 270 264
296 296 296 295 295 296 296 297 298 298 298 296 289 294 292 284 282 287 286 287 286 286 280 279 280 277 279 272 269 270 268 268 264 263 271 267 271 268 270 270 272 270 271 267 265 269 266
Wind_Speed
20 20 20 20 20 19 19 20 21 19 17 16 14 13 13 13 13 11 10 10 10 10 10 11 7 4 1 2 8 6 7 4 3 2 3 4 5 5 5 4 2 4 3 3 4 7 5
20 20 20 20 22 21 21 22 24 22 22 20 17 15 13 13 15 12 8 7 8 9 9 10 6 0 2 6 3 6 6 4 3 3 3 4 4 3 2 3 4 1 3 6 7 7 5
20 20 20 21 21 21 22 22 25 27 24 22 19 16 15 14 15 9 7 7 8 9 9 7 5 2 3 10 4 6 6 3 3 3 4 1 2 3 1 1 2 2 6 6 5 2 4
20 21 22 22 22 22 24 20 23 25 24 21 19 16 15 15 12 9 7 7 9 9 9 6 3 2 7 2 3 4 3 2 1 2 4 4 3 2 3 1 3 1 3 4 2 5 1
19 19 21 22 23 22 24 21 20 21 23 17 17 14 15 15 12 9 6 6 9 9 7 3 2 3 7 3 4 4 4 5 4 2 2 3 3 3 2 4 4 2 4 6 5 1 3
19 19 20 21 24 22 22 24 14 13 18 20 6 3 4 6 6 6 3 4 6 3 2 2 4 1 3 6 5 5 2 7 3 3 3 3 4 3 2 4 6 7 5 5 5 2 1
23 22 18 21 22 22 23 22 14 6 9 12 14 14 8 2 3 3 2 3 3 2 5 10 8 4 4 3 3 3 4 5 4 2 5 3 4 9 12 9 2 4 3 4 3 1 2
23 23 23 19 21 22 24 27 9 4 8 11 10 12 13 11 11 7 3 4 4 4 5 15 7 6 4 5 4 4 5 7 6 5 5 3 8 7 5 6 6 3 3 5 5 1 1
23 24 24 22 20 21 24 16 1 5 6 10 12 13 13 13 10 4 4 3 4 1 3 5 9 10 6 7 5 12 10 5 5 7 10 7 3 7 6 5 5 4 5 3 3 6 1
23 25 23 24 20 17 11 12 13 13 11 9 8 9 12 16 3 2 4 3 1 4 4 7 8 7 6 8 4 3 8 5 5 11 8 5 4 7 4 5 6 4 3 4 4 4 3
24 24 25 22 20 18 15 6 1 4 5 6 7 3 7 8 5 4 3 1 3 0 7 4 6 3 5 10 10 2 1 2 7 7 7 6 8 6 3 4 5 5 3 4 4 3 5
25 23 22 21 20 19 18 13 10 9 8 8 8 7 11 6 4 4 4 2 2 4 8 5 4 6 7 4 3 4 3 0 2 4 3 3 1 3 4 4 4 6 5 4 4 3 1
27 25 25 24 19 18 20 19 15 12 10 8 9 11 8 4 3 2 4 2 5 7 2 6 5 6 5 7 5 5 7 7 8 7 5 2 2 1 2 6 2 4 5 3 5 2 7
26 26 26 24 26 19 21 24 18 15 12 10 11 13 8 8 4 7 3 3 8 4 6 4 5 8 7 7 4 7 8 7 6 2 4 8 4 7 1 3 7 5 6 6 8 4 4
27 25 26 26 24 26 18 17 21 16 13 8 10 3 4 6 10 5 3 6 3 4 5 9 6 5 3 4 6 6 8 7 9 10 7 6 3 2 4 1 1 5 3 3 7 4 3
27 25 24 26 25 24 25 16 24 20 7 7 1 3 6 5 9 4 4 7 4 4 2 3 4 5 6 6 5 7 10 5 6 7 3 5 7 2 2 0 3 2 4 4 3 3 5
29 27 24 24 25 24 24 16 12 21 9 4 1 3 3 6 5 3 5 5 4 4 4 5 2 4 5 7 6 5 8 1 3 4 5 5 5 3 3 5 7 4 2 3 4 4 6
29 28 25 24 25 23 22 23 8 21 11 7 2 3 1 3 6 4 5 7 7 2 4 1 3 3 4 4 4 3 4 2 4 5 7 3 5 4 3 1 0 2 5 5 6 6 2
31 29 26 24 23 23 22 22 12 12 17 5 3 4 1 2 5 9 2 1 5 6 5 2 2 1 1 3 4 3 4 4 4 3 6 6 2 6 2 1 2 5 6 4 4 4 6
31 30 31 25 22 23 20 21 14 3 18 5 2 3 3 3 2 4 4 3 2 3 3 3 5 3 3 3 4 4 4 2 3 3 5 3 2 5 8 5 5 6 6 6 5 4 5
31 28 29 27 21 21 18 19 14 8 19 5 3 3 1 4 7 7 2 1 3 5 3 3 2 2 6 4 3 3 3 4 3 4 3 4 4 2 1 4 3 5 6 11 16 8 8
26 27 27 26 18 19 17 16 7 9 21 3 3 3 1 0 1 8 8 5 8 4 4 3 2 6 3 7 6 8 7 5 4 4 3 1 3 3 2 4 3 5 8 8 14 17 8
27 25 25 15 14 17 16 12 4 11 10 2 2 1 1 1 1 3 4 5 5 6 4 3 6 4 4 5 4 1 3 5 8 7 4 5 6 3 3 1 2 7 14 15 7 4 15
27 25 23 18 15 17 15 13 10 12 14 3 3 3 2 3 2 4 3 5 5 6 5 2 4 4 2 11 6 7 11 9 6 4 3 6 5 3 3 3 2 8 2 4 10 5 9
26 25 23 18 16 17 14 14 8 6 10 1 2 1 3 2 3 3 4 4 2 4 3 4 1 1 9 5 4 4 4 3 3 3 1 2 4 3 5 4 7 2 5 7 8 8 10
27 22 20 17 15 15 14 13 9 7 14 9 5 2 2 3 4 2 3 6 4 2 3 2 1 3 5 2 3 5 5 4 2 4 4 3 4 5 2 4 7 8 4 5 4 6 4
25 22 19 16 15 14 14 11 11 7 13 6 3 7 1 2 2 1 2 3 4 4 3 2 4 3 2 2 3 3 3 2 5 6 5 4 2 5 3 2 10 7 4 5 6 8 4
21 21 18 15 15 14 13 11 11 9 11 8 1 11 4 3 1 2 3 3 3 1 4 3 3 2 2 3 4 3 3 5 4 3 6 6 6 4 4 2 10 5 5 7 6 1 4
20 19 17 14 13 14 13 12 12 12 10 8 2 4 2 4 1 2 2 2 3 3 3 1 1 3 4 4 0 3 3 2 4 3 1 2 7 6 8 7 4 4 3 3 3 5 4
Wind_Direction
355 349 348 349 352 341 334 333 325 287 264 255 252 250 248 256 247 251 259 282 293 302 302 310 307 305 330 221 253 176 170 185 157 173 200 173 161 172 190 203 204 217 275 304 265 288 254
347 346 343 337 335 338 332 328 325 308 269 250 240 237 240 245 258 266 272 282 287 295 298 304 289 92 257 243 114 155 169 156 188 187 208 168 201 194 208 229 187 207 271 272 282 264 252
346 343 341 335 331 330 331 322 321 314 293 242 238 233 230 237 253 247 255 274 283 295 289 290 268 218 247 245 150 165 165 192 159 167 162 110 131 181 153 278 346 351 312 326 247 276 211
347 345 339 336 325 325 328 324 325 322 300 234 230 231 230 232 237 239 247 265 283 287 286 274 248 202 246 110 168 155 153 126 170 106 116 131 101 134 162 209 25 10 47 332 296 121 292
336 339 338 335 328 322 327 324 330 352 331 227 226 230 233 231 209 216 243 278 290 285 256 238 194 202 255 139 168 188 156 157 130 92 86 109 94 135 51 99 11 331 224 208 304 109 131
327 329 331 332 331 323 324 329 328 2 25 28 332 245 296 217 193 213 222 305 332 336 242 209 263 297 192 211 158 155 167 150 146 125 70 90 65 101 61 125 217 196 209 228 230 356 337
336 323 321 325 332 321 323 317 306 12 31 49 28 28 59 9 323 237 191 125 173 207 227 200 185 227 128 128 99 152 158 122 118 132 164 204 131 205 205 204 148 148 182 226 256 108 294
340 333 323 315 323 322 322 314 279 53 57 41 32 31 358 4 337 242 223 203 245 127 241 230 239 238 147 180 122 188 149 154 168 186 131 81 229 219 194 196 193 185 189 246 284 47 355
332 339 331 317 314 323 327 319 186 68 69 48 31 19 358 342 358 276 239 236 360 319 229 220 190 201 179 155 191 188 161 171 173 169 189 171 252 149 153 160 159 190 186 201 208 332 13
320 323 334 329 310 320 360 26 44 29 7 27 5 11 335 328 301 292 230 171 227 286 233 213 197 210 153 139 227 166 186 165 195 193 165 229 205 160 164 187 138 193 156 120 97 64 235
320 316 317 326 316 309 300 297 312 135 290 315 294 314 308 315 297 259 345 132 187 97 242 118 143 129 149 164 136 222 164 123 172 179 136 220 166 162 158 186 139 200 126 112 113 92 50
322 325 317 312 323 328 303 282 242 219 231 254 286 308 312 286 200 244 142 246 178 202 238 186 130 169 135 148 124 129 151 54 121 116 48 126 63 118 151 92 105 137 94 64 57 90 331
329 322 320 319 311 317 320 286 268 249 236 249 289 302 294 259 236 130 111 241 209 221 160 187 182 169 168 154 135 155 165 174 165 141 177 109 114 45 111 96 70 84 98 359 348 1 219
328 326 323 317 316 301 310 312 270 255 250 274 298 304 266 242 264 151 141 241 239 190 201 134 133 144 187 145 177 168 138 190 243 116 122 155 238 169 168 171 172 181 156 166 203 194 256
322 321 323 320 313 310 314 318 323 255 254 265 300 267 236 229 204 172 162 225 242 221 176 135 134 129 211 201 139 147 181 194 199 188 155 134 132 72 55 33 104 191 184 148 101 32 70
322 321 322 319 315 312 306 314 328 277 215 261 114 278 254 208 150 168 214 223 232 279 308 108 143 158 175 194 143 174 172 196 188 187 153 181 109 181 148 102 29 137 160 84 359 135 250
319 317 315 315 314 313 309 304 325 308 203 201 37 259 266 136 129 200 226 202 207 217 295 130 230 163 169 178 161 183 179 17 125 120 108 128 102 125 116 203 175 152 154 69 112 131 166
312 310 313 312 310 310 306 303 274 286 195 160 229 242 186 186 183 216 234 179 151 221 289 135 173 157 166 152 135 164 155 71 142 147 145 148 107 143 212 240 158 187 187 146 132 231 212
309 307 305 306 306 308 308 301 298 309 194 137 221 236 147 245 205 225 278 258 174 167 206 191 116 16 154 125 122 124 108 18 112 92 151 174 170 122 130 174 208 218 181 143 135 90 204
304 304 306 300 301 302 306 301 287 323 205 119 241 219 193 198 269 187 201 262 145 234 166 175 150 89 76 72 42 126 113 67 38 102 113 90 127 166 187 186 138 189 185 172 138 142 191
307 304 296 301 296 296 303 302 303 232 219 129 217 243 225 195 223 244 176 194 174 190 182 149 99 182 171 122 107 121 109 100 45 138 66 111 174 103 11 84 143 182 186 194 210 199 183
317 307 297 295 282 289 295 310 301 238 204 151 188 208 230 139 267 205 220 200 216 162 168 187 194 179 144 156 177 184 142 172 173 136 130 28 124 94 332 2 79 246 239 227 223 236 254
319 323 313 290 289 286 292 301 248 125 208 189 210 296 220 302 164 178 228 183 208 156 210 171 181 142 133 181 136 152 120 138 150 140 142 142 135 102 256 56 93 302 224 197 214 243 217
323 324 317 298 298 287 289 291 299 229 232 176 206 126 166 252 154 208 280 219 198 207 160 134 135 137 160 115 102 48 50 63 83 71 119 136 115 100 168 45 297 240 203 178 206 234 217
314 317 315 295 291 288 283 278 285 236 157 335 342 107 133 238 190 267 232 237 319 251 129 146 66 2 150 74 96 82 3 48 358 34 149 110 123 116 140 203 288 296 218 164 161 270 200
304 309 311 300 286 286 275 275 276 249 196 180 220 288 134 129 240 251 227 180 185 159 96 128 106 54 71 94 91 136 179 162 233 330 334 123 88 112 96 139 215 241 249 177 138 295 208
293 303 302 298 285 280 270 270 265 254 163 131 182 204 133 177 266 281 244 201 136 123 107 147 137 125 37 94 98 148 219 165 163 177 185 146 138 172 171 213 285 239 203 159 91 239 184
294 298 293 288 281 278 266 262 249 248 222 205 182 183 166 142 17 358 351 13 29 76 134 178 85 29 83 92 112 204 137 207 102 197 184 154 146 184 133 163 269 168 88 160 211 37 154
300 298 296 282 271 276 262 260 259 250 236 144 126 135 74 81 107 31 38 44 14 15 112 43 139 154 169 88 71 105 103 109 135 226 63 227 179 182 186 212 224 222 184 230 156 144 207